sat.trackr.live / text

‹ back to catalog

2026-134E

NORAD 69542 · 2026-134E

PAYLOAD ACTIVE UNKNOWN

§ Identity

Operator
Country
PRC
Launch date
2026-06-15
Launch site
JSC
Launch vehicle
Mass (kg)
RCS (m²)

External: N2YO · Heavens-Above · Gunter

§ Orbital elements

Epoch: 2026-09-19T10:31:24.976992Z

Period
95.45 min
Inclination
97.6963°
Eccentricity
0.0020537
Mean motion
15.08645145 rev/d
Perigee alt
526.1 km
Apogee alt
554.5 km
Semi-major
6,918.5 km
B*
1.7262e-4
RAAN
332.9824°
Arg perigee
311.1620°
Mean anomaly
48.7836°
Rev number
1,452

§ Raw data

2026-134E1 69542U 26134E   26262.43848353  .00002649  00000+0  17262-3 0  99992 69542  97.6963 332.9824 0020537 311.1620  48.7836 15.08645145 14527

JSON: /api/v1/satellites/69542 · /tle

For live sub-satellite position, see the globe view (requires WebGL).

§ Visibility from observer

Set your observer location to see the next 7 days of passes ≥ 10°. The values pass through the URL so the page stays shareable.

No JS? Fill the form by hand. The geolocation button needs JavaScript.